Regional Weather Roundup
Issued by NWS

Home | Current Version | Previous Version | Graphics & Text | Print | Product List | Glossary Off
Versions: 1 2 3 4 5 6 7 8 9 10 11 12 13 14 15 16 17 18 19 20 21 22 23 24 25 26 27 28 29 30 31 32 33 34 35 36 37 38 39 40 41 42 43 44 45 46 47 48 49 50

483
ASUS43 KDMX 231606
RWRIA

WEATHER ROUNDUP FOR IOWA
NATIONAL WEATHER SERVICE DES MOINES IA
1100 AM CDT THU MAR 23 2017

NOTE: "FAIR" INDICATES FEW OR NO CLOUDS BELOW 12,000 FEET WITH NO
SIGNIFICANT WEATHER AND/OR OBSTRUCTIONS TO VISIBILITY.

* - THESE STATIONS ARE NOT NWS STATIONS...THUS NOT UNDER NWS
QUALITY CONTROL.  THEY ALSO DO NOT REPORT WEATHER SUCH
AS PRECIPITATION OR FOG.

IAZ001>003-012>014-020>022-031>034-043>046-231700-
   NORTHWEST IOWA

CITY           SKY/WX    TMP DP  RH WIND       PRES   REMARKS
CARROLL *      CLOUDY    46  30  53 SE21G28   29.97F
CHEROKEE *     CLOUDY    44  28  54 SE14G21   29.94F
DENISON *      CLOUDY    48  32  53 SE17G29   29.92F
LE MARS *      CLOUDY    45  32  61 SE14      29.90F
ORANGE CITY *  LGT RAIN  43  30  61 SE7       29.94R
SHELDON *      CLOUDY    41  30  65 SE17G26   29.89F
SPENCER        CLOUDY    42  25  50 SE17      29.97F
STORM LAKE *   CLOUDY    43  25  49 SE17G29   29.95F
$$

IAZ055>058-069>071-079>083-090>094-231700-
   SOUTHWEST IOWA

CITY           SKY/WX    TMP DP  RH WIND       PRES   REMARKS
ATLANTIC *     CLOUDY    48  34  57 S15G25    29.97F
AUDUBON *      CLOUDY    46  34  61 SE15      29.98F
CLARINDA *     CLOUDY    48  34  57 SE13G23   30.01F
COUNCIL BLFS * CLOUDY    52  34  50 S22       29.92F
CRESTON *      CLOUDY    46  32  57 SE22G30   30.03F
HARLAN  *      CLOUDY    48  34  57 SE20G25   29.97F
LAMONI         CLOUDY    45  33  63 SE12G21   30.05
RED OAK *      CLOUDY    50  34  53 SE15G22   29.97F
SHENANDOAH *   CLOUDY    52  34  50 SE16G23   29.97F
$$

IAZ047>049-059>061-072>074-084-231700-
   CENTRAL IOWA

CITY           SKY/WX    TMP DP  RH WIND       PRES   REMARKS
AMES           CLOUDY    43  27  53 SE18      30.07F
ANKENY *       CLOUDY    43  27  52 SE14G22   30.09S
BOONE *        CLOUDY    43  27  52 SE21      30.03F
CHARITON *     CLOUDY    43  32  65 SE16G23   30.08F
DES MOINES     CLOUDY    44  28  53 SE17G26   30.08F
MARSHALLTOWN   CLOUDY    39  24  55 SE23G31   30.09F WCI  28
NEWTON *       CLOUDY    41  25  52 SE21G26   30.10F
PELLA *        PTSUNNY   40  27  59 SE15      30.12F WCI  32
PERRY *        CLOUDY    43  31  61 SE20G25   30.03F
$$

IAZ004>006-015-016-023>025-035-036-231700-
   NORTH CENTRAL IOWA

CITY           SKY/WX    TMP DP  RH WIND       PRES   REMARKS
ALGONA *       CLOUDY    41  28  60 S25G33    30.01F
CLARION *      CLOUDY    41  27  56 SE23G31   30.04F
FORT DODGE *   CLOUDY    43  25  49 SE14G24   30.03F
MASON CITY     CLOUDY    35  25  66 SE17      30.08F WCI  25
FOREST CITY *  CLOUDY    36  28  75 SE23G31   30.04F WCI  24
WEBSTER CITY * CLOUDY    41  25  52 SE24G31   30.03F
IOWA FALLS *   CLOUDY    39  25  56 SE21G26   30.09F WCI  29
$$

IAZ007>011-017>019-026>030-037>042-050>054-066-231700-
   NORTHEAST IOWA

CITY           SKY/WX    TMP DP  RH WIND       PRES   REMARKS
CEDAR RAPIDS   CLOUDY    39  25  57 SE17G24   30.18  WCI  30
CLINTON *      CLOUDY    39  24  55 SE21      30.27F WCI  29
DECORAH *      CLOUDY    37  21  52 S16G25    30.14F WCI  28
DUBUQUE        CLOUDY    37  23  56 SE17      30.22  WCI  27
MONTICELLO *   CLOUDY    39  23  52 SE18G25   30.21F WCI  30
OELWEIN *      CLOUDY    37  25  60 SE22      30.15F WCI  27
WATERLOO       CLOUDY    39  23  52 SE15G25   30.13F WCI  31
$$

IAZ064-065-067-068-078-231700-
   EAST CENTRAL IOWA

CITY           SKY/WX    TMP DP  RH WIND       PRES   REMARKS
DAVENPORT      CLOUDY    39  23  52 SE17      30.25  WCI  30
IOWA CITY      CLOUDY    41  27  57 SE16      30.22F
MUSCATINE *    CLOUDY    39  28  65 SE13G26   30.23F WCI  32
QUAD CITIES    CLOUDY    40  24  53 SE13      30.26  WCI  32
$$

IAZ062-063-075>077-085>089-095>099-231700-
   SOUTHEAST IOWA

CITY           SKY/WX    TMP DP  RH WIND       PRES   REMARKS
BURLINGTON     MIX PCPN  36  35  96 SE14      30.22F FOG     WCI  27
FAIRFIELD *    CLOUDY    39  28  65 SE22      30.17F WCI  29
FORT MADISON * CLOUDY    37  30  75 SE13      30.23F WCI  29
KEOKUK *       MIX PCPN  37  34  87 SE13G23   30.22S WCI  29
OSKALOOSA *    CLOUDY    39  29  67 SE22      30.14F WCI  29
CENTERVILLE *  CLOUDY    39  34  81 SE15G21   30.13F WCI  31
OTTUMWA        CLOUDY    40  30  67 SE16      30.14  WCI  31
WASHINGTON *   CLOUDY    39  30  70 SE20G29   30.20F WCI  30
$$

ABBREVIATIONS USED IN REMARKS
   TC - TEMPERATURES IN CELSIUS
  WCI - WIND CHILL INDEX
   HX - HEAT INDEX
  VSB - VISIBILITY
$$





USA.gov is the U.S. government's official web portal to all federal, state and local government web resources and services.